Total_Precipitation_Accumulation
1.83 2.14 2.53 2.87 3.08 3.24 3.33 3.62 3.80 3.48 2.95 2.46 1.92 1.62 1.47 1.27 1.12 1.02 0.90 0.89 0.82 0.83 0.82 0.69 0.73 0.63 0.62 0.65 0.69 0.79 0.82 0.80 0.80 1.08 1.29 1.12 0.89 0.87 0.78 0.77 0.88 0.94 0.97
1.38 1.48 1.70 2.02 2.11 2.32 2.63 2.98 3.21 3.04 2.47 2.18 1.89 1.69 1.53 1.36 1.28 1.18 1.00 0.83 0.79 0.77 0.69 0.76 0.64 0.62 0.67 0.69 0.70 0.77 0.80 0.73 0.71 0.94 1.21 1.12 1.18 1.12 0.64 0.72 0.82 0.88 1.02
1.02 1.01 1.10 1.26 1.57 2.04 2.19 2.23 2.46 2.64 2.35 2.19 2.06 1.88 1.72 1.47 1.38 1.28 1.08 0.83 0.74 0.73 0.72 0.67 0.66 0.76 0.60 0.73 0.83 0.81 0.79 0.77 0.69 0.69 0.89 0.97 0.98 0.93 0.83 0.71 0.70 0.78 0.97
0.69 0.83 0.84 0.90 1.10 1.42 1.70 1.94 2.17 2.31 2.21 2.07 1.85 1.63 1.39 1.20 1.09 1.06 1.05 0.98 0.87 0.77 0.75 0.67 0.71 0.79 0.68 0.85 0.68 0.69 0.77 0.77 0.67 0.63 0.54 0.57 0.69 0.80 0.89 0.81 0.68 0.71 0.80
0.38 0.55 0.67 0.75 0.78 0.98 1.36 1.77 2.08 2.28 2.15 1.84 1.66 1.61 1.47 1.34 1.24 1.13 1.20 1.08 1.01 0.89 0.79 0.76 0.77 0.73 0.68 0.74 0.75 0.88 0.79 0.76 0.71 0.63 0.56 0.60 0.56 0.52 0.63 0.78 0.80 0.78 0.61
0.26 0.35 0.42 0.51 0.64 0.78 1.02 1.29 1.58 1.84 1.86 1.69 1.58 1.56 1.53 1.49 1.35 1.11 1.05 0.99 0.95 0.93 0.90 0.91 0.87 0.79 0.70 0.70 0.71 0.79 0.82 0.86 0.91 0.76 0.63 0.65 0.61 0.54 0.57 0.54 0.55 0.65 0.54
0.21 0.31 0.37 0.34 0.46 0.56 0.66 0.81 1.09 1.31 1.44 1.50 1.49 1.43 1.50 1.50 1.35 1.18 1.06 1.01 0.87 0.83 0.84 0.85 0.91 0.85 0.82 0.80 0.79 0.77 0.77 0.84 0.88 0.77 0.66 0.59 0.51 0.53 0.57 0.59 0.49 0.47 0.43
0.16 0.25 0.34 0.31 0.32 0.38 0.51 0.64 0.85 1.02 1.13 1.19 1.27 1.28 1.26 1.20 1.22 1.27 1.14 1.03 0.95 0.89 0.85 0.85 0.82 0.81 0.82 0.82 0.93 0.78 0.71 0.76 0.75 0.70 0.78 0.71 0.49 0.49 0.56 0.61 0.65 0.65 0.61
0.23 0.24 0.30 0.30 0.25 0.29 0.38 0.45 0.62 0.76 0.86 0.96 1.08 1.09 1.11 1.05 1.06 1.08 1.04 0.98 1.01 0.99 0.92 0.85 0.83 0.86 0.87 0.88 0.92 0.85 0.84 0.84 0.74 0.69 0.77 0.71 0.58 0.52 0.45 0.55 0.67 0.83 0.84
0.30 0.30 0.27 0.32 0.28 0.27 0.33 0.38 0.47 0.60 0.70 0.81 0.89 0.89 1.02 1.03 1.13 1.10 1.01 0.94 0.89 0.88 0.92 0.90 0.83 0.87 0.91 0.96 0.98 0.95 1.01 1.06 0.95 0.83 0.83 0.78 0.70 0.70 0.56 0.54 0.66 0.80 0.90
0.28 0.31 0.30 0.29 0.25 0.24 0.26 0.29 0.40 0.52 0.61 0.72 0.78 0.85 0.90 0.95 1.01 1.06 1.05 1.00 0.94 0.91 0.92 0.90 0.85 0.83 0.86 0.92 0.95 0.93 1.05 1.18 1.22 1.07 0.96 0.90 0.86 0.87 0.76 0.75 0.79 0.83 0.96
0.18 0.22 0.24 0.22 0.19 0.22 0.23 0.24 0.29 0.37 0.45 0.63 0.77 0.81 0.90 0.95 0.94 0.96 1.12 1.13 1.08 1.05 1.05 1.03 1.01 0.94 0.88 0.92 0.90 0.84 0.89 1.06 1.25 1.41 1.43 1.25 1.12 1.08 0.96 0.95 0.93 0.92 0.98
0.19 0.26 0.28 0.26 0.21 0.21 0.23 0.26 0.30 0.36 0.41 0.54 0.67 0.77 0.86 0.95 1.00 1.05 1.17 1.26 1.25 1.25 1.27 1.27 1.21 1.15 1.12 1.08 1.04 0.98 0.95 0.99 1.08 1.27 1.45 1.44 1.44 1.27 1.19 1.12 1.04 0.99 0.94
0.20 0.24 0.35 0.35 0.26 0.21 0.25 0.28 0.34 0.40 0.50 0.66 0.78 0.85 0.99 1.11 1.17 1.14 1.22 1.29 1.36 1.41 1.44 1.45 1.38 1.30 1.26 1.25 1.23 1.19 1.17 1.16 1.15 1.15 1.19 1.27 1.43 1.36 1.29 1.23 1.16 1.13 1.12
0.25 0.31 0.39 0.43 0.40 0.35 0.33 0.37 0.47 0.57 0.73 0.93 1.00 1.01 1.08 1.16 1.24 1.34 1.42 1.52 1.58 1.60 1.69 1.63 1.54 1.48 1.45 1.35 1.41 1.51 1.49 1.49 1.35 1.22 1.14 1.11 1.24 1.32 1.32 1.20 1.15 1.20 1.22
0.33 0.37 0.51 0.55 0.56 0.52 0.53 0.62 0.72 0.87 1.09 1.33 1.40 1.46 1.51 1.52 1.57 1.61 1.66 1.77 1.81 1.82 1.76 1.70 1.69 1.65 1.50 1.60 1.61 1.51 1.51 1.63 1.61 1.47 1.37 1.23 1.14 1.14 1.19 1.23 1.26 1.24 1.22
0.50 0.50 0.62 0.69 0.76 0.74 0.71 0.80 0.90 1.09 1.28 1.40 1.40 1.44 1.53 1.59 1.62 1.66 1.71 1.73 1.75 1.74 1.68 1.71 1.75 1.72 1.73 1.66 1.45 1.31 1.27 1.33 1.41 1.45 1.41 1.21 1.10 1.13 1.09 1.21 1.26 1.19 1.12
0.64 0.64 0.70 0.74 0.75 0.79 0.83 0.90 0.97 1.03 1.23 1.32 1.31 1.28 1.31 1.34 1.40 1.51 1.56 1.55 1.56 1.54 1.52 1.52 1.45 1.41 1.38 1.36 1.19 1.12 1.09 1.11 1.09 1.18 1.26 1.22 1.12 1.07 1.03 0.97 0.91 0.88 0.89
0.60 0.65 0.73 0.71 0.71 0.77 0.83 0.83 0.88 0.93 1.04 1.10 1.12 1.08 1.12 1.18 1.27 1.33 1.40 1.45 1.44 1.32 1.22 1.17 1.16 1.15 1.19 1.29 1.12 1.04 1.02 1.05 0.98 0.97 0.99 0.99 0.90 0.88 0.81 0.77 0.69 0.66 0.66
0.51 0.61 0.74 0.74 0.72 0.74 0.75 0.75 0.79 0.85 0.95 1.06 1.12 1.10 1.10 1.16 1.21 1.26 1.30 1.30 1.28 1.24 1.21 1.15 1.11 1.09 1.10 1.20 1.05 0.99 0.98 1.01 0.96 0.94 0.98 1.04 0.90 0.76 0.61 0.61 0.64 0.57 0.54
0.53 0.58 0.69 0.80 0.80 0.80 0.82 0.85 0.84 0.84 0.90 0.98 1.03 1.04 1.03 1.04 1.08 1.14 1.13 1.19 1.23 1.20 1.14 1.07 1.05 1.08 1.07 1.06 0.92 0.83 0.79 0.83 0.83 0.79 0.80 0.89 0.86 0.69 0.54 0.54 0.56 0.51 0.49
0.41 0.55 0.66 0.75 0.81 0.87 0.94 0.94 0.88 0.86 0.89 0.98 1.01 0.98 0.98 0.96 0.96 0.95 0.96 1.00 1.03 1.02 1.00 0.99 0.99 1.04 1.03 0.91 0.79 0.68 0.64 0.66 0.69 0.78 0.79 0.88 0.89 0.71 0.59 0.51 0.48 0.41 0.36
0.39 0.45 0.55 0.66 0.70 0.80 0.89 0.96 0.95 0.94 0.91 0.95 1.00 0.97 0.97 0.99 1.02 1.04 1.04 1.03 1.02 1.01 0.98 0.93 0.86 0.85 0.88 0.88 0.73 0.58 0.52 0.55 0.61 0.82 1.03 1.04 0.98 0.82 0.67 0.60 0.56 0.44 0.37
0.49 0.53 0.58 0.60 0.61 0.66 0.75 0.85 0.93 0.96 0.99 0.97 0.92 0.89 0.90 0.90 0.94 1.04 1.07 1.08 1.07 1.03 0.96 0.91 0.86 0.85 0.87 0.86 0.80 0.70 0.61 0.62 0.68 0.85 1.04 1.14 1.16 1.06 0.93 0.83 0.74 0.57 0.52
0.57 0.60 0.65 0.62 0.60 0.63 0.69 0.77 0.85 0.90 0.92 0.95 0.93 0.92 0.89 0.87 0.90 0.95 0.97 0.94 0.95 0.94 0.89 0.84 0.84 0.84 0.86 0.85 0.80 0.72 0.66 0.64 0.68 0.80 1.03 1.22 1.34 1.36 1.31 1.17 1.04 0.91 0.80
0.66 0.64 0.67 0.68 0.66 0.69 0.74 0.73 0.79 0.90 0.98 0.97 0.91 0.87 0.83 0.81 0.82 0.83 0.88 0.95 0.85 0.85 0.80 0.77 0.70 0.67 0.70 0.70 0.61 0.55 0.54 0.55 0.60 0.73 0.95 1.19 1.38 1.44 1.53 1.51 1.40 1.21 1.04